Back to catalog

COSMOS 2251 DEB

AliveLEO
NORAD 34303·DEBRIS·🇷🇺 Russia

Launched Jun 16, 1993 from Plesetsk Cosmodrome

Loading…

Next Passes (next 24 hours)

TLE

FreshSource: Space-Track

Epoch: Sep 14, 2026, 01:27 UTC

1 34303U 93036MZ  26257.06076742  .00003071  00000-0  60941-3 0  9992
2 34303  74.0027 124.8238 0133781 196.5769 315.1900 14.57094987919696

Track COSMOS 2251 DEB in real time with AllMySat

Download on the App Store